#timestamp,LO_Frequency,Hit 
1501725615.5,286046998.4,N
1501725635.3,286046998.5,N
1501725655.1,286047000.2,N
1501725675.9,286047000.2,N
1501725695.7,286047001.5,N
1501725715.5,286047002.6,N
1501725735.3,286047002.6,N
1501725755.2,286047000.0,N
1501725775.0,286046996.6,N
1501725775.9,286046996.6,N
1501725795.7,286046998.5,N
1501725815.6,286046998.8,N
1501725835.4,286046996.7,N
1501725855.2,286046997.0,N
1501725875.1,286046998.8,N
1501725876.0,286046998.8,N
1501725895.8,286047000.8,N
1501725915.6,286046998.2,N
1501725935.5,286047002.6,N
1501725955.3,286047001.5,N
1501725975.1,286047003.4,N
1501725995.9,286047006.0,P
1501726015.7,286047004.0,N
1501726035.5,286047003.9,N
1501726055.4,286047000.1,N
1501726075.2,286046998.7,N
1501726095.0,286046998.7,N
1501726095.9,286046998.7,N
1501726115.8,286046999.5,N
1501726135.6,286047000.5,N
1501726155.4,286046999.7,N
1501726175.3,286047000.1,N
1501726195.1,286047000.5,N
1501726196.0,286047000.5,N
1501726215.8,286047000.6,N
1501726235.6,286047001.0,N
1501726255.5,286047001.0,N
1501726275.3,286047000.6,N
1501726295.1,286047002.4,N
1501726315.9,286047004.0,N
1501726335.7,286047002.0,N
1501726355.5,286047001.8,N
1501726375.4,286047004.3,N
1501726395.2,286047003.7,N
1501726415.0,286047007.3,P
1501726415.9,286047007.3,N
1501726435.8,286047007.4,N
1501726455.6,286047006.4,N
1501726475.5,286047008.6,P
1501726495.3,286046998.7,N
1501726515.1,286046996.0,N
1501726535.8,286046993.7,N
1501726555.7,286046992.4,N
1501726575.5,286046993.3,N
1501726595.3,286046993.9,N
1501726615.2,286046993.8,N
1501726635.9,286046995.6,N
1501726655.7,286046999.5,N
1501726675.6,286046997.2,N
1501726695.4,286046997.0,N
1501726715.2,286046998.5,N
1501726735.1,286047000.0,N
1501726736.0,286047000.0,N
1501726755.8,286046998.3,N
1501726775.6,286046996.8,N
1501726795.5,286046998.5,N
1501726815.3,286046996.8,N
1501726835.1,286046999.2,N
1501726855.8,286046998.2,N
1501726875.7,286046999.5,N
1501726895.5,286046998.6,N
1501726915.3,286047000.7,N
1501726935.2,286046999.1,N
1501726955.9,286046998.3,N
1501726975.7,286046999.8,N
1501726995.6,286047002.4,N
1501727015.4,286046998.6,N
1501727035.2,286046998.6,N
1501727055.1,286046998.4,N
1501727056.0,286046998.4,N
1501727075.8,286046999.4,N
1501727095.6,286046998.9,N
1501727115.4,286046999.5,N
1501727135.3,286047000.3,N
1501727155.1,286046998.1,N
1501727175.8,286046998.6,N
1501727195.7,286046999.3,N
1501727215.5,286046998.9,N
1501727235.3,286046998.9,N
1501727255.2,286046998.9,N
1501727275.9,286046997.6,N
1501727295.7,286046995.6,P
1501727315.6,286046997.1,N
1501727335.4,286046997.6,N
1501727355.2,286046996.9,N
1501727375.1,286047001.1,N
1501727376.0,286047001.1,N
1501727395.8,286047000.5,N
1501727415.6,286047000.5,N
1501727435.5,286047002.7,N
1501727455.3,286047004.3,N
1501727475.1,286047004.2,N
1501727495.9,286047004.2,N
1501727515.7,286047001.3,N
1501727535.5,286047002.0,N
1501727555.3,286047004.3,N
1501727575.2,286047001.5,N
1501727595.0,286047000.9,N
1501727595.9,286047000.9,N
1501727615.7,286047000.6,N
1501727635.9,286047001.0,N
1501727655.7,286047000.5,N
1501727675.6,286047002.3,N
1501727695.4,286047001.8,N
1501727715.2,286047003.8,N
1501727735.1,286047004.1,N
1501727736.0,286047004.1,N
1501727755.8,286047004.7,N
1501727775.6,286047003.4,N
1501727795.4,286047005.2,N
1501727815.3,286047002.9,N
1501727835.1,286047005.6,N
1501727855.8,286047006.4,N
1501727875.7,286047007.1,P
1501727895.5,286047003.3,N
1501727915.3,286047001.7,N
1501727935.2,286047003.4,N
1501727955.0,286047005.2,N
1501727955.9,286047005.2,N
1501727975.8,286047006.8,P
1501727995.6,286047003.8,N
1501728015.4,286047004.0,N
1501728035.2,286047003.6,N
1501728055.1,286047005.2,P
1501728056.0,286047005.2,P
1501728075.8,286047002.4,P
1501728095.7,286047000.1,N
1501728115.5,286047000.0,N
1501728135.3,286047002.4,N
1501728155.1,286047001.0,N
1501728175.9,286047000.1,N
1501728195.7,286047001.0,N
1501728215.6,286047000.7,N
1501728235.4,286047000.5,N
1501728255.2,286047002.0,N
1501728275.1,286047002.1,N
1501728276.0,286047002.1,N
1501728295.8,286046999.8,N
1501728315.6,286047002.3,N
1501728335.5,286046999.8,N
1501728355.3,286047000.7,N
1501728375.1,286047002.7,N
1501728395.8,286047001.5,N
1501728415.7,286047000.6,N
1501728435.5,286047002.3,N
1501728455.3,286047002.1,N
1501728475.2,286047004.3,N
1501728495.9,286047005.4,P
1501728515.7,286047003.3,N
1501728535.6,286047004.2,N
1501728555.4,286047004.0,P
1501728575.2,286047000.6,P
1501728595.1,286047000.5,N
1501728596.0,286047000.5,N
1501728615.8,286047000.5,N
1501728635.6,286046999.7,N
1501728655.5,286047000.6,N
1501728675.3,286046999.9,N
1501728695.1,286047002.7,N
1501728715.9,286047001.6,N
1501728735.7,286047002.0,N
1501728755.5,286047002.7,N
1501728775.4,286047000.8,N
1501728795.2,286046998.5,N
1501728815.0,286047000.8,N
1501728815.9,286047000.8,N
1501728835.8,286046999.5,N
1501728855.6,286046998.6,N
1501728875.4,286046998.2,N
1501728895.2,286047000.8,N
1501728915.1,286046999.3,N
1501728916.0,286046999.3,N
1501728935.8,286046999.6,N
1501728955.6,286046999.1,N
1501728975.5,286047000.5,N
1501728995.3,286046998.5,N
1501729015.1,286047000.8,N
1501729035.9,286047000.4,N
1501729055.7,286047001.4,N
1501729075.5,286047001.1,N
1501729095.4,286047000.0,N
1501729115.2,286047000.3,N
1501729135.0,286047002.2,N
1501729135.9,286047002.2,N
1501729155.8,286047001.4,N
1501729175.6,286047002.4,N
1501729195.4,286047002.3,N
